Location: Newark
(33.6333°S, 78.8500°W)
Time: 21:27:46
(UTC+00:00)

Courier 1B - Pass Details

Date: 26 September 2019
Orbit: 962 x 1209 km, 28.3° (Epoch: 17 October)

Event Time Altitude Azimuth Distance (km) Brightness Sun altitude
Rises 00:31:53 0° 270° (W) 4,050 12.3 -16.9°
Reaches altitude 10° 00:34:53 10° 276° (W) 3,056 11.2 -17.5°
Maximum altitude 00:42:03 48° 347° (NNW) 1,418 8.3 -19.0°
Enters shadow 00:45:41 27° 45° (NE) 1,950 8.6 -19.7°
Drops below altitude 10° 00:48:47 10° 59° (ENE) 2,873 - -20.3°
Sets 00:51:31 0° 64° (ENE) 3,789 - -20.9°
